Weather History for Taunton, MA

Change the Weather History Date:

Friday, May 9, 2014

  Actual Average Record
Temperature  
Mean Temperature 58 °F -  
Max Temperature 64 °F 63 °F 91 °F (1979)
Min Temperature 54 °F 42 °F 24 °F (1956)
Degree Days  
Heating Degree Days 6    
Growing Degree Days 8 (Base 50)    
Moisture  
Dew Point 52 °F    
Average Humidity 79    
Maximum Humidity 94    
Minimum Humidity 50    
Precipitation  
Precipitation 0.05 in - - ()
Sea Level Pressure  
Sea Level Pressure 30.19 in    
Wind  
Wind Speed 2 mph (SSE)    
Max Wind Speed 10 mph    
Max Gust Speed -    
Visibility 8 miles    
Events Rain    
Averages and records for this station are not official NWS values.
T = Trace of Precipitation, MM = Missing Value Source: NWS Daily Summary

Daily Weather History Graph

Daily Weather History Graph

Search for Another Location

Airport:

Trip Planner

Search our weather history database for the weather conditions in past years. The results will help you decide how hot, cold, wet, or windy it might be!

Date:

Astronomy

May. 09, 2014 Rise Set
Actual Time 5:30 AM EDT 7:51 PM EDT
Civil Twilight 4:59 AM EDT 8:22 PM EDT
Nautical Twilight 4:20 AM EDT 9:01 PM EDT
Astronomical Twilight 3:37 AM EDT 9:44 PM EDT
Moon 2:41 PM EDT (5/9) 2:36 AM EDT (5/9)
Length of Visible Light 15h 23m
Length of Day
14h 20m
Waxing Gibbous, 73% of the Moon is Illuminated
May 9
Waxing Gibbous
May 14
Full
May 21
Last Quarter
May 28
New
Jun 5
First Quarter

Hourly Weather History & Observations

Time (EDT) Temp. Dew Point Humidity Pressure Visibility Wind Dir Wind Speed Gust Speed Precip Events Conditions
12:52 AM 54.0 °F 51.1 °F 90% 30.19 in 10.0 mi Calm Calm - N/A   Clear
1:52 AM 55.0 °F 51.1 °F 86% 30.17 in 10.0 mi East 3.5 mph - N/A   Clear
2:52 AM 55.0 °F 52.0 °F 89% 30.16 in 10.0 mi SE 3.5 mph - N/A   Overcast
3:52 AM 55.0 °F 52.0 °F 89% 30.18 in 10.0 mi Calm Calm - 0.00 in   Overcast
4:52 AM 55.9 °F 52.0 °F 87% 30.17 in 10.0 mi Calm Calm - N/A   Overcast
5:41 AM 55.9 °F 53.1 °F 90% 30.18 in 10.0 mi Calm Calm - N/A   Overcast
5:52 AM 55.9 °F 53.1 °F 90% 30.18 in 10.0 mi Calm Calm - N/A   Overcast
6:52 AM 57.0 °F 53.1 °F 87% 30.19 in 8.0 mi Calm Calm - N/A   Overcast
7:35 AM 57.9 °F 54.0 °F 87% 30.21 in 9.0 mi Calm Calm - N/A   Overcast
7:45 AM 57.9 °F 54.0 °F 87% 30.21 in 1.8 mi Calm Calm - 0.00 in Rain Light Rain
7:52 AM 57.0 °F 54.0 °F 89% 30.21 in 1.5 mi Calm Calm - 0.01 in Rain Light Rain
8:07 AM 57.9 °F 54.0 °F 87% 30.21 in 2.0 mi Calm Calm - 0.01 in Rain Light Rain
8:25 AM 57.9 °F 55.0 °F 90% 30.21 in 3.0 mi Calm Calm - 0.01 in Rain Light Rain
8:52 AM 57.9 °F 55.0 °F 90% 30.22 in 4.0 mi Calm Calm - 0.01 in Rain Light Rain
9:11 AM 57.9 °F 55.0 °F 90% 30.22 in 2.5 mi Calm Calm - 0.01 in   Overcast
9:41 AM 57.9 °F 55.0 °F 90% 30.23 in 3.0 mi Calm Calm - 0.01 in   Overcast
9:49 AM 57.2 °F 55.4 °F 94% 30.23 in 5.0 mi South 3.5 mph - 0.02 in   Overcast
9:52 AM 57.9 °F 55.0 °F 90% 30.23 in 7.0 mi Calm Calm - 0.02 in   Overcast
10:05 AM 57.9 °F 55.0 °F 90% 30.23 in 4.0 mi Calm Calm - N/A   Overcast
10:15 AM 57.9 °F 55.0 °F 90% 30.23 in 2.0 mi Variable 3.5 mph - N/A   Overcast
10:35 AM 57.9 °F 55.0 °F 90% 30.23 in 4.0 mi South 3.5 mph - N/A   Overcast
11:50 AM 59.0 °F 55.4 °F 88% 30.22 in 2.5 mi SSE 3.5 mph - 0.01 in Rain Light Rain
11:52 AM 59.0 °F 55.0 °F 87% 30.22 in 2.5 mi SE 3.5 mph - 0.01 in Rain Light Rain
12:06 PM 57.9 °F 55.0 °F 90% 30.21 in 4.0 mi SE 8.1 mph - 0.00 in   Overcast
12:36 PM 59.0 °F 55.0 °F 87% 30.22 in 9.0 mi South 3.5 mph - 0.00 in Rain Light Rain
12:52 PM 59.0 °F 55.0 °F 87% 30.21 in 10.0 mi SSE 4.6 mph - 0.00 in   Overcast
1:17 PM 60.1 °F 54.0 °F 80% 30.20 in 10.0 mi SSE 6.9 mph - N/A   Overcast
1:52 PM 60.1 °F 52.0 °F 75% 30.21 in 10.0 mi SSE 6.9 mph - N/A   Overcast
2:49 PM 62.6 °F 51.8 °F 68% 30.19 in 10.0 mi South 8.1 mph - N/A   Overcast
2:52 PM 62.1 °F 51.1 °F 67% 30.19 in 10.0 mi SSE 6.9 mph - N/A   Overcast
3:19 PM 63.0 °F 48.0 °F 58% 30.18 in 10.0 mi SSE 10.4 mph - N/A   Overcast
3:43 PM 63.0 °F 48.0 °F 58% 30.18 in 10.0 mi Variable 6.9 mph - N/A   Overcast
3:52 PM 63.0 °F 46.9 °F 56% 30.18 in 10.0 mi SE 9.2 mph - N/A   Overcast
4:05 PM 63.0 °F 48.0 °F 58% 30.17 in 10.0 mi Variable 6.9 mph - N/A   Overcast
4:45 PM 62.1 °F 44.1 °F 52% 30.17 in 10.0 mi SSE 9.2 mph - N/A   Overcast
4:52 PM 62.1 °F 43.0 °F 50% 30.17 in 10.0 mi SSE 6.9 mph - N/A   Overcast
5:52 PM 61.0 °F 43.0 °F 52% 30.16 in 10.0 mi SE 5.8 mph - N/A   Overcast
6:52 PM 60.1 °F 46.0 °F 60% 30.15 in 10.0 mi SE 4.6 mph - N/A   Overcast
7:00 PM 60.1 °F 46.0 °F 60% 30.15 in 10.0 mi SE 3.5 mph - N/A   Overcast
7:52 PM 60.1 °F 48.0 °F 64% 30.16 in 10.0 mi Calm Calm - N/A   Overcast
8:50 PM 59.0 °F 50.0 °F 72% 30.14 in 10.0 mi SE 3.5 mph - N/A   Overcast
8:52 PM 59.0 °F 50.0 °F 72% 30.14 in 10.0 mi SE 3.5 mph - N/A   Overcast
9:52 PM 59.0 °F 51.1 °F 75% 30.12 in 10.0 mi SE 8.1 mph - N/A   Mostly Cloudy
11:52 PM 62.1 °F 55.9 °F 80% 30.08 in 10.0 mi South 3.5 mph - N/A   Overcast